www.pogodaiklimat.ru

Погода и климат >> Архив погоды >> Россия >> Саратовская область >> Красный Кут


ПОГОДА в Красном Куте

  • Прогноз погоды в Красном Куте
  • Монитор погоды в Красном Куте

АРХИВ ПОГОДЫ в Красном Куте

Время (UTC), дата Ветер
(напр.,м/с)
 
Видим.   Явления Облачность Т
(С)
Тd
(С)
f
(%)
Тe
(С)
Тes
(С)
Комфортность P
(гПа)
Po
(гПа)
Тmin
(С)
Tmax
(С)
R
(мм)
R24
(мм)
S
(см)
09 12.07 СЗ 1 10 км слаб. ливневой дождь 10/10 1500 м
[Cb cap]
+17.1 +15.6 91 +18 +18 1006.6 1000.8
12 12.07 СЗ 2 4000 м ливневой дождь 10/10 1500 м
[Cb cap]
+16.4 +14.9 91 +16 +16 1007.0 1001.2
15 12.07 С 5
{10}
2000 м дождь {ливн. осадки} 10/10 450 м
[Sc]
+15.2 +13.9 92 +14 +14 1005.8 999.9 +18.2 29
18 12.07 С 4 10 км слаб. дождь 10/10 600 м
[Sc]
+15.3 +13.7 90 +14 +14 1005.2 999.4
21 12.07 СЗ 5 10 км {дождь} 10/10 900 м
[Sc]
+15.4 +14.0 91 +14 +14 1005.1 999.3
00 13.07 СЗ 3 10 км {дождь} 10/10 1500 м
[Sc]
+14.1 +12.8 92 +13 +13 1005.4 999.5
03 13.07 СЗ 3 4000 м дымка 6/4 1500 м
[Sc Ac trans Ci fib]
+16.2 +15.0 93 +16 +17 1006.4 1000.5 +13.5 5
06 13.07 СЗ 3 10 км 8/0
[Ac trans Ci fib]
+21.6 +14.7 65 +25 +30 комфорт 1006.9 1001.2
09 13.07 С 2 10 км 9/4 1500 м
[Cu hum Ac trans Ci fib]
+23.9 +14.6 56 +27 +32 жарко 1006.7 1001.0
12 13.07 СЗ 2 10 км 9/4 1500 м
[Cb cap Ac trans]
+26.0 +12.8 44 +28 +31 жарко 1006.7 1001.1
15 13.07 Ю 1 10 км 10/3 1500 м
[Cb cap Ac trans]
+24.3 +14.4 54 +27 +27 жарко 1006.6 1001.0 +26.6
18 13.07 Ю 2 10 км 10/6 1500 м
[Cb cap Ac trans]
+20.3 +16.4 78 +24 +24 комфорт 1007.6 1001.9
21 13.07 СЗ 2 10 км 10/6 1500 м
[Cb cap Ac trans]
+16.6 +14.6 88 +17 +17 1008.2 1002.3
00 14.07 штиль 0 10 км 10/4 1500 м
[Cb cap Ac trans]
+12.8 +11.5 92 +12 +12 1008.1 1002.2
03 14.07 штиль 0 10 км 10/4 1500 м
[Cb cap Ac trans Ci fib]
+16.7 +16.1 96 +17 +17 1008.9 1003.1 +12.5
06 14.07 ЮЗ 1 10 км 4/0
[Ac trans]
+21.8 +14.6 64 +25 +35 комфорт 1009.0 1003.3
09 14.07 ЮЗ 2 10 км 6/6 1500 м
[Cu hum]
+23.9 +12.9 50 +26 +33 жарко 1008.2 1002.5
12 14.07 С 2 10 км 6/3 1500 м
[Cu hum Ac trans Ci fib]
+25.1 +12.5 45 +27 +32 жарко 1007.8 1002.1
15 14.07 С 4 10 км 8/4 1500 м
[Cu hum Ac trans]
+25.3 +13.0 46 +27 +28 жарко 1007.5 1001.8 +27.1
18 14.07 СЗ 2 10 км 3/3 1500 м
[Sc]
+17.9 +13.6 76 +18 +18 1008.2 1002.4
21 14.07 СЗ 1 10 км 3/3 1500 м
[Sc]
+15.5 +14.4 93 +16 +16 1007.4 1001.5
00 15.07 СЗ 1 10 км 3/3 1500 м
[Sc]
+14.0 +13.8 99 +14 +14 1007.4 1001.5
03 15.07 СЗ 5 10 км ясно +16.9 +15.4 91 +16 +17 1007.4 1001.6 +13.7
06 15.07 С 4 10 км ясно +22.6 +15.9 66 +27 +34 душно 1007.6 1001.9
09 15.07 СЗ 3 10 км 6/6 1500 м
[Cu hum]
+26.6 +13.4 44 +29 +34 жарко 1007.5 1001.9
12 15.07 С 5 10 км 6/6 1500 м
[Cu hum]
+27.3 +10.5 35 +28 +30 жарко 1007.8 1002.2
15 15.07 СЗ 4 10 км 4/4 1500 м
[Sc]
+27.4 +9.2 32 +28 +28 жарко 1007.7 1002.1 +28.3
18 15.07 штиль 0 10 км 3/0
[Ac trans]
+18.2 +12.7 70 +18 +18 1009.5 1003.7
21 15.07 С 1 10 км 3/0
[Ac trans]
+14.3 +13.2 93 +15 +15 1010.1 1004.2
00 16.07 С 1 10 км 4/0
[Ac trans]
+12.9 +12.6 98 +13 +13 1010.6 1004.7
03 16.07 СВ 1 10 км 8/0
[Ac trans Ci fib]
+17.6 +14.9 84 +19 +20 1011.1 1005.2 +12.3
06 16.07 ЮВ 1 10 км 10/0
[Ac trans Ci fib]
+25.1 +15.9 57 +28 +36 жарко 1010.9 1005.3
09 16.07 ЮВ 3 10 км 10/8 1500 м
[Cb cap Ac trans]
+27.8 +11.9 37 +29 +30 жарко 1010.7 1005.0
12 16.07 В 3 10 км 10/10 1500 м
[Cb cap]
+27.4 +10.4 35 +28 +28 жарко 1009.4 1003.7
15 16.07 штиль 0 10 км 10/10 1500 м
[Cb cap]
+22.1 +15.1 65 +26 +26 душно 1009.9 1004.1 +28.0
18 16.07 СВ 1 10 км {ливн. осадки} 10/10 1500 м
[Cb cap]
+20.6 +15.9 74 +25 +25 комфорт 1010.2 1004.4
21 16.07 СВ 2 10 км 10/10 1500 м
[Cb cap]
+20.2 +16.3 78 +24 +24 комфорт 1009.2 1003.4
00 17.07 В 1 10 км 10/10 1500 м
[Cb calv]
+19.1 +16.9 87 +22 +22 комфорт 1008.5 1002.8
03 17.07 В 2 10 км 6/3 1500 м
[Sc Ac trans Ci fib]
+19.4 +16.7 84 +22 +23 комфорт 1007.8 1002.0 +19.0 0.0
06 17.07 ЮВ 3 10 км 6/3 1500 м
[Sc Ac trans]
+22.4 +17.1 72 +27 +32 душно 1007.0 1001.0
09 17.07 ЮВ 3 10 км 6/3 1500 м
[Sc Ac trans Ci fib]
+28.6 +15.1 44 +31 +39 жарко 1005.2 999.7
12 17.07 Ю 4 10 км 5/3 1500 м
[Cb cap Ac trans]
+30.9 +14.3 36 +33 +37 душно 1003.6 998.1
15 17.07 ЮЗ 4 10 км 8/3 1500 м
[Cb cap Ac trans Ci fib]
+27.1 +16.9 54 +31 +31 душно 1003.6 998.0 +30.9
18 17.07 ЮЗ 1 10 км 3/3 1500 м
[Sc]
+20.9 +15.6 72 +25 +25 комфорт 1004.7 999.0
21 17.07 ЮЗ 2 10 км 3/3 1500 м
[Sc]
+18.6 +16.0 85 +20 +20 1005.0 999.2
00 18.07 З 2 10 км ясно +17.6 +16.7 94 +18 +18 1005.6 999.8
03 18.07 З 3 10 км ясно +19.9 +17.9 88 +23 +25 комфорт 1006.6 1000.9 +16.9
06 18.07 З 4 10 км 3/3
[Cu hum]
+24.9 +17.0 62 +29 +34 душно 1006.9 1001.3
09 18.07 З 4 10 км 3/3 1500 м
[Cu hum]
+28.2 +14.0 42 +30 +38 жарко 1007.1 1001.5
12 18.07 З 5
{12}
10 км 4/4 1500 м
[Cu hum]
+30.1 +13.0 35 +31 +34 жарко 1007.3 1001.7
15 18.07 З 3 10 км 3/0
[Ac trans]
+29.2 +10.6 32 +30 +31 жарко 1007.5 1001.9 +30.3
18 18.07 С 1 10 км 3/0
[Ac trans]
+21.1 +13.2 61 +23 +23 комфорт 1008.9 1003.1
21 18.07 штиль 0 10 км ясно +16.7 +14.7 88 +17 +17 1009.4 1003.6
00 19.07 штиль 0 10 км ясно +18.0 +14.9 82 +18 +18 1010.3 1004.4
03 19.07 ЮЗ 1 10 км 8/8 1500 м
[Sc]
+20.3 +15.5 74 +24 +25 комфорт 1011.0 1005.2 +15.9
06 19.07 СЗ 4 10 км 8/8 1500 м
[Sc]
+23.9 +15.8 60 +27 +29 жарко 1011.6 1005.9

 

Местоположение метеостанции Красный Кут (Саратовская область, Россия): широта 50.95 долгота 46.97 высота над уровнем моря 50 м.

В архиве по умолчанию представлена погода в Красном Куте за последнюю неделю. Архивные данные за месяц целиком и за предыдущие месяцы, начиная с января 2011 года, Вы можете получить, выбрав интересующий диапазон дат из раскрывающегося списка и нажав кнопку "Ввод!".


*Определитесь, кто Вы:
робот инопланетянин человек

Внимание! Время в таблицах - всемирное. Для получения местного времени необходимо прибавить поправку, которая равна 4 ч.

Смотрите также архив погоды в соседних городах и на ближайших метеорологических станциях:

Погода в Маркс (Саратовская область, Россия) (85 км)
Погода в Саратове (Саратовская область, Россия) (95 км)
Погода в Саратове ЮВ (Саратовская область, Россия) (97 км)
Погода в Новоузенске (Саратовская область, Россия) (100 км)
Погода в Палласовке (Волгоградская область, Россия) (100 км)
Погода в Ершове (Саратовская область, Россия) (104 км)
Погода в Сплавнухе (Саратовская область, Россия) (112 км)
Погода в Октябрьском Городке (Саратовская область, Россия) (130 км)
Погода в Балаково (Саратовская область, Россия) (133 км)
Погода в Александровом Гае (Саратовская область, Россия) (143 км)

Пояснения к столбцам:

Ветер - указаны скорость ветра в м/с - средняя за 10 мин, порывы в срок и между сроками (в фигурных скобках) и направление, откуда дует ветер: С - северный, СВ - северо-восточный, В - восточный, ЮВ - юго-восточный, Ю - южный, ЮЗ - юго-западный, З - западный, СЗ - северо-западный.
Видимость - горизонтальная дальность видимости в метрах или километрах. При видимости от 1 до 10 км при отсутствии осадков обычно наблюдается дымка, при ухудшении видимости до 1 км и менее - туман. В сухую погоду видимость может ухудшаться дымом, пылью или мглою.
Явления - указаны атмосферные явления, наблюдавшиеся в срок или в последний час перед сроком; фигурными скобками обозначены явления, наблюдавшиеся между сроками (за 1-3 часа до срока); квадратными скобками обозначены град или гололедные отложения с указанием их диаметра в мм.
Облачность - указаны через наклонную черту общая и нижняя облачность в баллах и высота нижней границы облаков в метрах; квадратными скобками обозначены формы облаков: Ci - перистые, Cs - перисто-слоистые, Cc - перисто-кучевые, Ac - высококучевые, As - высокослоистые, Sc - слоисто-кучевые, Ns - слоисто-дождевые, Cu - кучевые, Cb - кучево-дождевые. Подробнее классификацию облаков см. в Атласе облаков (PDF).
T - Температура воздуха - температура, измеренная на высоте 2 м над землей.
Td - Температура точки росы - температура, при понижении до которой содержащийся в воздухе водяной пар достигнет насыщения.
f - Относительная влажность воздуха - влажноcть воздуха, измеренная на высоте 2 м над землей.
Te - Эффективная температура - температура, которую ощущает одетый по сезону человек в тени. Характеристика душности погоды. При расчете учитывается влияние влажности воздуха и скорости ветра на теплоощущения человека.
Tes - Эффективная температура на солнце - температура, которую ощущает человек, с поправкой на солнечный нагрев. Характеристика знойности погоды. Зависит от высоты солнца над горизонтом, облачности и скорости ветра. Ночью, в пасмурную погоду, а также при ветре 12 м/с и более поправка равна нулю.
P - Атмосферное давление - приведенное к уровню моря атмосферное давление.
Po - Атмосферное давление - измеренное на уровне метеостанции атмосферное давление.
Tmin - Минимальная температура - минимум температуры воздуха на высоте 2 м над землей.
Tmax - Максимальная температура - максимум температуры воздуха на высоте 2 м над землей.
R - Количество осадков - Количество выпавших осадков за период времени, мм. При наведении курсора мыши на число - период времени, за который выпало указанное количество осадков.
R24 - Количество осадков - Количество выпавших осадков за 24 часа, мм.
S - Снежный покров - Высота снежного покрова, см. При наведении курсора мыши на число - состояние снежного покрова и степень покрытия местности в баллах.